Private Wetterstation Sandau
Wetterdaten: Samstag, 10.03.2012
Datum Zeit Temp. A. Feuchte A. Luftdruck Regen Wind Richtung Richtung Taupunkt Windchill
10.03.2012 00:02 7,3 C 73 % 1033,1 hPa 0,0 l/m 12,2 km/h (2 Bft) S-SW 202 2,8 C 5,0 C
10.03.2012 00:07 7,3 C 73 % 1033,1 hPa 0,0 l/m 8,6 km/h (2 Bft) SW 225 2,8 C 5,7 C
10.03.2012 00:12 7,4 C 73 % 1033,0 hPa 0,0 l/m 14,4 km/h (3 Bft) SW 225 2,9 C 4,8 C
10.03.2012 00:17 7,4 C 73 % 1033,0 hPa 0,0 l/m 10,1 km/h (2 Bft) S-SW 202 2,9 C 5,5 C
10.03.2012 00:22 7,4 C 73 % 1033,0 hPa 0,0 l/m 15,5 km/h (3 Bft) W-SW 247 2,9 C 4,6 C
10.03.2012 00:27 7,3 C 73 % 1032,9 hPa 0,0 l/m 8,3 km/h (2 Bft) S-SW 202 2,8 C 5,8 C
10.03.2012 00:32 7,3 C 73 % 1032,9 hPa 0,0 l/m 8,3 km/h (2 Bft) S-SW 202 2,8 C 5,8 C
10.03.2012 00:37 7,3 C 73 % 1033,0 hPa 0,0 l/m 11,2 km/h (2 Bft) SW 225 2,8 C 5,2 C
10.03.2012 00:42 7,3 C 73 % 1032,9 hPa 0,0 l/m 2,9 km/h (1 Bft) S-SW 202 2,8 C 7,3 C
10.03.2012 00:47 7,3 C 73 % 1032,8 hPa 0,0 l/m 9,4 km/h (2 Bft) W 270 2,8 C 5,5 C
10.03.2012 00:52 7,2 C 73 % 1032,8 hPa 0,0 l/m 13,7 km/h (3 Bft) S-SW 202 2,7 C 4,7 C
10.03.2012 00:57 7,3 C 73 % 1032,6 hPa 0,0 l/m 9,7 km/h (2 Bft) S-SW 202 2,8 C 5,5 C
10.03.2012 01:02 7,2 C 73 % 1032,7 hPa 0,0 l/m 12,2 km/h (2 Bft) SW 225 2,7 C 4,9 C
10.03.2012 01:07 7,2 C 74 % 1032,6 hPa 0,0 l/m 15,8 km/h (3 Bft) S-SW 202 2,9 C 4,4 C
10.03.2012 01:12 7,2 C 74 % 1032,7 hPa 0,0 l/m 5,4 km/h (1 Bft) SW 225 2,9 C 6,4 C
10.03.2012 01:17 7,2 C 74 % 1032,6 hPa 0,0 l/m 8,3 km/h (2 Bft) SW 225 2,9 C 5,6 C
10.03.2012 01:22 7,2 C 74 % 1032,6 hPa 0,0 l/m 7,6 km/h (2 Bft) S-SW 202 2,9 C 5,8 C
10.03.2012 01:27 7,1 C 74 % 1032,5 hPa 0,0 l/m 7,2 km/h (2 Bft) W-SW 247 2,8 C 5,8 C
10.03.2012 01:32 7,0 C 74 % 1032,6 hPa 0,0 l/m 10,1 km/h (2 Bft) W-SW 247 2,7 C 5,0 C
10.03.2012 01:37 7,0 C 74 % 1032,4 hPa 0,0 l/m 10,8 km/h (2 Bft) S 180 2,7 C 4,9 C
10.03.2012 01:42 6,9 C 75 % 1032,4 hPa 0,0 l/m 13,7 km/h (3 Bft) S-SW 202 2,8 C 4,3 C
10.03.2012 01:47 6,9 C 75 % 1032,5 hPa 0,0 l/m 7,9 km/h (2 Bft) SW 225 2,8 C 5,4 C
10.03.2012 01:52 6,9 C 75 % 1032,5 hPa 0,0 l/m 11,5 km/h (2 Bft) W-SW 247 2,8 C 4,6 C
10.03.2012 01:57 6,9 C 75 % 1032,6 hPa 0,0 l/m 4,0 km/h (1 Bft) W 270 2,8 C 6,9 C
10.03.2012 02:02 6,8 C 75 % 1032,7 hPa 0,0 l/m 4,0 km/h (1 Bft) W-SW 247 2,7 C 6,8 C
10.03.2012 02:07 6,8 C 75 % 1032,4 hPa 0,0 l/m 6,1 km/h (2 Bft) W 270 2,7 C 5,8 C
10.03.2012 02:12 6,7 C 75 % 1032,5 hPa 0,0 l/m 8,3 km/h (2 Bft) S-SW 202 2,6 C 5,1 C
10.03.2012 02:17 6,7 C 75 % 1032,4 hPa 0,0 l/m 8,3 km/h (2 Bft) S-SW 202 2,6 C 5,1 C
10.03.2012 02:22 6,7 C 75 % 1032,4 hPa 0,0 l/m 8,6 km/h (2 Bft) SW 225 2,6 C 5,0 C
10.03.2012 02:27 6,7 C 75 % 1032,2 hPa 0,0 l/m 7,6 km/h (2 Bft) W-SW 247 2,6 C 5,2 C
10.03.2012 02:32 6,8 C 75 % 1032,4 hPa 0,0 l/m 6,1 km/h (2 Bft) W-SW 247 2,7 C 5,8 C
10.03.2012 02:37 6,8 C 75 % 1032,5 hPa 0,0 l/m 9,4 km/h (2 Bft) S-SW 202 2,7 C 4,9 C
10.03.2012 02:42 6,8 C 75 % 1032,5 hPa 0,0 l/m 4,0 km/h (1 Bft) SW 225 2,7 C 6,8 C
10.03.2012 02:47 6,8 C 76 % 1032,4 hPa 0,0 l/m 4,7 km/h (1 Bft) S-SW 202 2,9 C 6,2 C
10.03.2012 02:52 6,9 C 75 % 1032,4 hPa 0,0 l/m 6,5 km/h (2 Bft) SW 225 2,8 C 5,8 C
10.03.2012 02:57 6,9 C 76 % 1032,5 hPa 0,0 l/m 5,8 km/h (2 Bft) W 270 3,0 C 6,0 C
10.03.2012 03:02 6,9 C 76 % 1032,3 hPa 0,0 l/m 10,8 km/h (2 Bft) W-SW 247 3,0 C 4,8 C
10.03.2012 03:07 6,9 C 76 % 1032,3 hPa 0,0 l/m 6,1 km/h (2 Bft) W-SW 247 3,0 C 5,9 C
10.03.2012 03:12 6,9 C 76 % 1032,3 hPa 0,0 l/m 7,6 km/h (2 Bft) W-SW 247 3,0 C 5,5 C
10.03.2012 03:17 6,9 C 76 % 1032,5 hPa 0,0 l/m 7,2 km/h (2 Bft) W 270 3,0 C 5,6 C
10.03.2012 03:22 6,9 C 76 % 1032,3 hPa 0,0 l/m 10,8 km/h (2 Bft) W-SW 247 3,0 C 4,8 C
10.03.2012 03:27 6,9 C 76 % 1032,4 hPa 0,0 l/m 7,6 km/h (2 Bft) W-SW 247 3,0 C 5,5 C
10.03.2012 03:32 6,9 C 76 % 1032,4 hPa 0,0 l/m 7,2 km/h (2 Bft) S-SW 202 3,0 C 5,6 C
10.03.2012 03:37 6,9 C 76 % 1032,4 hPa 0,0 l/m 6,1 km/h (2 Bft) W-SW 247 3,0 C 5,9 C
10.03.2012 03:42 6,9 C 77 % 1032,2 hPa 0,0 l/m 11,2 km/h (2 Bft) SW 225 3,2 C 4,7 C
10.03.2012 03:47 6,9 C 77 % 1032,2 hPa 0,0 l/m 8,6 km/h (2 Bft) W 270 3,2 C 5,2 C
10.03.2012 03:52 6,9 C 77 % 1032,1 hPa 0,0 l/m 8,6 km/h (2 Bft) S 180 3,2 C 5,2 C
10.03.2012 03:57 6,9 C 77 % 1032,1 hPa 0,0 l/m 3,6 km/h (1 Bft) S 180 3,2 C 6,9 C
10.03.2012 04:02 6,9 C 78 % 1032,2 hPa 0,0 l/m 7,2 km/h (2 Bft) SW 225 3,3 C 5,6 C
10.03.2012 04:07 6,9 C 78 % 1032,0 hPa 0,0 l/m 4,0 km/h (1 Bft) SW 225 3,3 C 6,9 C
10.03.2012 04:12 6,9 C 78 % 1031,9 hPa 0,0 l/m 9,7 km/h (2 Bft) S 180 3,3 C 5,0 C
10.03.2012 04:17 6,9 C 78 % 1031,8 hPa 0,0 l/m 12,2 km/h (2 Bft) S-SW 202 3,3 C 4,5 C
10.03.2012 04:22 6,9 C 78 % 1031,7 hPa 0,0 l/m 15,5 km/h (3 Bft) SW 225 3,3 C 4,0 C
10.03.2012 04:27 6,9 C 79 % 1031,6 hPa 0,0 l/m 12,2 km/h (2 Bft) W-SW 247 3,5 C 4,5 C
10.03.2012 04:32 6,9 C 79 % 1031,6 hPa 0,0 l/m 8,6 km/h (2 Bft) SW 225 3,5 C 5,2 C
10.03.2012 04:37 6,9 C 79 % 1031,5 hPa 0,0 l/m 9,0 km/h (2 Bft) W-SW 247 3,5 C 5,1 C
10.03.2012 04:42 6,9 C 79 % 1031,3 hPa 0,0 l/m 8,6 km/h (2 Bft) W-SW 247 3,5 C 5,2 C
10.03.2012 04:47 6,9 C 79 % 1031,3 hPa 0,0 l/m 6,1 km/h (2 Bft) SW 225 3,5 C 5,9 C
10.03.2012 04:52 6,9 C 79 % 1031,1 hPa 0,0 l/m 9,4 km/h (2 Bft) SW 225 3,5 C 5,1 C
10.03.2012 04:57 6,9 C 79 % 1031,2 hPa 0,0 l/m 7,6 km/h (2 Bft) W-SW 247 3,5 C 5,5 C
10.03.2012 05:02 7,0 C 79 % 1031,0 hPa 0,0 l/m 9,4 km/h (2 Bft) W-SW 247 3,6 C 5,2 C
10.03.2012 05:07 7,1 C 79 % 1031,0 hPa 0,0 l/m 7,9 km/h (2 Bft) W-SW 247 3,7 C 5,6 C
10.03.2012 05:12 7,1 C 79 % 1031,1 hPa 0,0 l/m 16,6 km/h (3 Bft) W-SW 247 3,7 C 4,1 C
10.03.2012 05:17 7,1 C 79 % 1031,2 hPa 0,0 l/m 13,3 km/h (3 Bft) W-SW 247 3,7 C 4,6 C
10.03.2012 05:22 7,2 C 79 % 1031,1 hPa 0,0 l/m 10,4 km/h (2 Bft) W-SW 247 3,8 C 5,2 C
10.03.2012 05:27 7,2 C 79 % 1031,1 hPa 0,0 l/m 21,6 km/h (4 Bft) W 270 3,8 C 3,7 C
10.03.2012 05:32 7,2 C 79 % 1030,9 hPa 0,0 l/m 19,1 km/h (3 Bft) W-SW 247 3,8 C 3,9 C
10.03.2012 05:37 7,2 C 79 % 1031,0 hPa 0,0 l/m 12,2 km/h (2 Bft) W-NW 292 3,8 C 4,9 C
10.03.2012 05:42 7,3 C 79 % 1031,1 hPa 0,0 l/m 8,6 km/h (2 Bft) W-SW 247 3,9 C 5,7 C
10.03.2012 05:47 7,3 C 79 % 1030,9 hPa 0,0 l/m 14,0 km/h (3 Bft) W-NW 292 3,9 C 4,7 C
10.03.2012 05:52 7,3 C 79 % 1030,9 hPa 0,0 l/m 13,7 km/h (3 Bft) W-SW 247 3,9 C 4,8 C
10.03.2012 05:57 7,3 C 79 % 1030,8 hPa 0,0 l/m 12,2 km/h (2 Bft) W-SW 247 3,9 C 5,0 C
10.03.2012 06:02 7,3 C 80 % 1030,8 hPa 0,0 l/m 7,6 km/h (2 Bft) W-SW 247 4,1 C 5,9 C
10.03.2012 06:07 7,3 C 80 % 1030,7 hPa 0,0 l/m 7,9 km/h (2 Bft) W-SW 247 4,1 C 5,9 C
10.03.2012 06:12 7,3 C 80 % 1030,7 hPa 0,0 l/m 12,6 km/h (3 Bft) W-SW 247 4,1 C 4,9 C
10.03.2012 06:17 7,4 C 80 % 1030,8 hPa 0,0 l/m 7,2 km/h (2 Bft) S-SW 202 4,2 C 6,1 C
10.03.2012 06:22 7,4 C 80 % 1030,8 hPa 0,0 l/m 13,7 km/h (3 Bft) W-SW 247 4,2 C 4,9 C
10.03.2012 06:27 7,4 C 80 % 1030,8 hPa 0,0 l/m 7,9 km/h (2 Bft) S-SW 202 4,2 C 6,0 C
10.03.2012 06:32 7,4 C 80 % 1030,9 hPa 0,0 l/m 13,0 km/h (3 Bft) W 270 4,2 C 5,0 C
10.03.2012 06:37 7,4 C 80 % 1030,7 hPa 0,0 l/m 11,5 km/h (2 Bft) W-SW 247 4,2 C 5,2 C
10.03.2012 06:42 7,4 C 80 % 1030,7 hPa 0,0 l/m 14,4 km/h (3 Bft) SW 225 4,2 C 4,8 C
10.03.2012 06:47 7,4 C 80 % 1030,9 hPa 0,0 l/m 9,0 km/h (2 Bft) SW 225 4,2 C 5,7 C
10.03.2012 06:52 7,5 C 80 % 1030,6 hPa 0,0 l/m 15,5 km/h (3 Bft) W-SW 247 4,3 C 4,8 C
10.03.2012 06:57 7,5 C 80 % 1030,6 hPa 0,0 l/m 19,1 km/h (3 Bft) W-SW 247 4,3 C 4,3 C
10.03.2012 07:02 7,5 C 80 % 1030,8 hPa 0,0 l/m 9,0 km/h (2 Bft) W 270 4,3 C 5,8 C
10.03.2012 07:07 7,5 C 80 % 1030,6 hPa 0,0 l/m 10,8 km/h (2 Bft) W 270 4,3 C 5,5 C
10.03.2012 07:12 7,6 C 80 % 1030,7 hPa 0,0 l/m 9,0 km/h (2 Bft) W 270 4,4 C 6,0 C
10.03.2012 07:17 7,6 C 80 % 1030,6 hPa 0,0 l/m 10,4 km/h (2 Bft) S-SW 202 4,4 C 5,7 C
10.03.2012 07:22 7,6 C 81 % 1030,4 hPa 0,0 l/m 14,8 km/h (3 Bft) W 270 4,6 C 5,0 C
10.03.2012 07:27 7,6 C 81 % 1030,6 hPa 0,0 l/m 10,8 km/h (2 Bft) W-SW 247 4,6 C 5,6 C
10.03.2012 07:32 7,6 C 81 % 1030,7 hPa 0,0 l/m 16,9 km/h (3 Bft) SW 225 4,6 C 4,7 C
10.03.2012 07:37 7,7 C 81 % 1030,8 hPa 0,0 l/m 13,3 km/h (3 Bft) W 270 4,7 C 5,3 C
10.03.2012 07:42 7,8 C 81 % 1030,6 hPa 0,0 l/m 4,7 km/h (1 Bft) W-SW 247 4,7 C 7,4 C
10.03.2012 07:47 7,8 C 81 % 1030,6 hPa 0,0 l/m 22,7 km/h (4 Bft) W-SW 247 4,7 C 4,3 C
10.03.2012 07:52 7,8 C 81 % 1030,7 hPa 0,0 l/m 16,2 km/h (3 Bft) W-SW 247 4,7 C 5,0 C
10.03.2012 07:57 7,8 C 81 % 1030,5 hPa 0,0 l/m 16,6 km/h (3 Bft) W-SW 247 4,7 C 5,0 C
10.03.2012 08:02 7,8 C 81 % 1030,7 hPa 0,0 l/m 11,2 km/h (2 Bft) W-SW 247 4,7 C 5,8 C
10.03.2012 08:07 7,9 C 81 % 1030,6 hPa 0,0 l/m 12,2 km/h (2 Bft) W-SW 247 4,8 C 5,7 C
10.03.2012 08:12 7,9 C 81 % 1030,5 hPa 0,0 l/m 13,3 km/h (3 Bft) W 270 4,8 C 5,6 C
10.03.2012 08:17 7,9 C 81 % 1030,5 hPa 0,0 l/m 14,8 km/h (3 Bft) W-NW 292 4,8 C 5,4 C
10.03.2012 08:22 7,9 C 81 % 1030,5 hPa 0,0 l/m 10,8 km/h (2 Bft) W-SW 247 4,8 C 6,0 C
10.03.2012 08:27 8,1 C 81 % 1030,6 hPa 0,0 l/m 19,1 km/h (3 Bft) W-SW 247 5,0 C 5,1 C
10.03.2012 08:32 8,1 C 81 % 1030,5 hPa 0,0 l/m 9,4 km/h (2 Bft) W 270 5,0 C 6,5 C
10.03.2012 08:37 8,1 C 80 % 1030,5 hPa 0,0 l/m 13,0 km/h (3 Bft) W-SW 247 4,9 C 5,9 C
10.03.2012 08:42 8,1 C 81 % 1030,5 hPa 0,0 l/m 14,4 km/h (3 Bft) W-SW 247 5,0 C 5,7 C
10.03.2012 08:47 8,1 C 81 % 1030,4 hPa 0,0 l/m 10,4 km/h (2 Bft) W-SW 247 5,0 C 6,3 C
10.03.2012 08:52 8,1 C 81 % 1030,4 hPa 0,0 l/m 27,4 km/h (4 Bft) S-SW 202 5,0 C 4,3 C
10.03.2012 08:57 8,2 C 81 % 1030,5 hPa 0,0 l/m 11,9 km/h (2 Bft) W-SW 247 5,1 C 6,2 C
10.03.2012 09:02 8,2 C 81 % 1030,5 hPa 0,0 l/m 9,0 km/h (2 Bft) W-NW 292 5,1 C 6,7 C
10.03.2012 09:07 8,2 C 81 % 1030,3 hPa 0,0 l/m 9,0 km/h (2 Bft) SW 225 5,1 C 6,7 C
10.03.2012 09:12 8,2 C 81 % 1030,5 hPa 0,0 l/m 11,5 km/h (2 Bft) W-SW 247 5,1 C 6,2 C
10.03.2012 09:17 8,3 C 81 % 1030,5 hPa 0,0 l/m 11,5 km/h (2 Bft) W 270 5,2 C 6,3 C
10.03.2012 09:22 8,3 C 81 % 1030,5 hPa 0,0 l/m 6,8 km/h (2 Bft) W 270 5,2 C 7,3 C
10.03.2012 09:27 8,4 C 82 % 1030,5 hPa 0,0 l/m 10,4 km/h (2 Bft) W-SW 247 5,5 C 6,6 C
10.03.2012 09:32 8,4 C 82 % 1030,6 hPa 0,0 l/m 21,2 km/h (4 Bft) W 270 5,5 C 5,2 C
10.03.2012 09:37 8,4 C 82 % 1030,6 hPa 0,0 l/m 9,7 km/h (2 Bft) W-SW 247 5,5 C 6,8 C
10.03.2012 09:42 8,4 C 82 % 1030,8 hPa 0,0 l/m 7,9 km/h (2 Bft) W 270 5,5 C 7,2 C
10.03.2012 09:47 8,5 C 82 % 1030,6 hPa 0,0 l/m 7,2 km/h (2 Bft) W-NW 292 5,6 C 7,4 C
10.03.2012 09:52 8,5 C 82 % 1030,5 hPa 0,0 l/m 10,1 km/h (2 Bft) NW 315 5,6 C 6,8 C
10.03.2012 09:57 8,6 C 82 % 1030,7 hPa 0,0 l/m 18,7 km/h (3 Bft) W 270 5,7 C 5,7 C
10.03.2012 10:02 8,6 C 82 % 1030,6 hPa 0,0 l/m 7,2 km/h (2 Bft) W-SW 247 5,7 C 7,5 C
10.03.2012 10:07 8,7 C 82 % 1030,6 hPa 0,0 l/m 5,0 km/h (1 Bft) W-NW 292 5,8 C 8,3 C
10.03.2012 10:12 8,8 C 82 % 1030,6 hPa 0,0 l/m 14,8 km/h (3 Bft) W-SW 247 5,9 C 6,5 C
10.03.2012 10:17 8,8 C 82 % 1030,5 hPa 0,0 l/m 18,0 km/h (3 Bft) W 270 5,9 C 6,1 C
10.03.2012 10:22 8,9 C 82 % 1030,6 hPa 0,0 l/m 18,7 km/h (3 Bft) SW 225 6,0 C 6,1 C
10.03.2012 10:27 8,9 C 82 % 1030,6 hPa 0,0 l/m 7,9 km/h (2 Bft) SW 225 6,0 C 7,7 C
10.03.2012 10:32 9,0 C 82 % 1030,5 hPa 0,0 l/m 15,1 km/h (3 Bft) W-NW 292 6,1 C 6,7 C
10.03.2012 10:37 9,0 C 82 % 1030,5 hPa 0,0 l/m 12,2 km/h (2 Bft) W-SW 247 6,1 C 7,1 C
10.03.2012 10:42 9,1 C 82 % 1030,6 hPa 0,0 l/m 10,1 km/h (2 Bft) W 270 6,2 C 7,5 C
10.03.2012 10:47 9,1 C 82 % 1030,5 hPa 0,0 l/m 4,3 km/h (1 Bft) W 270 6,2 C 9,1 C
10.03.2012 10:52 9,2 C 82 % 1030,5 hPa 0,0 l/m 4,3 km/h (1 Bft) SW 225 6,3 C 9,2 C
10.03.2012 10:57 9,3 C 82 % 1030,5 hPa 0,0 l/m 6,5 km/h (2 Bft) W 270 6,4 C 8,5 C
10.03.2012 11:02 9,3 C 82 % 1030,6 hPa 0,0 l/m 20,2 km/h (4 Bft) NW 315 6,4 C 6,5 C
10.03.2012 11:07 9,3 C 82 % 1030,5 hPa 0,0 l/m 11,5 km/h (2 Bft) W-SW 247 6,4 C 7,5 C
10.03.2012 11:12 9,3 C 82 % 1030,8 hPa 0,0 l/m 16,6 km/h (3 Bft) W-NW 292 6,4 C 6,9 C
10.03.2012 11:17 9,3 C 82 % 1030,6 hPa 0,0 l/m 23,4 km/h (4 Bft) W-NW 292 6,4 C 6,2 C
10.03.2012 11:22 9,3 C 82 % 1030,7 hPa 0,0 l/m 26,6 km/h (4 Bft) W 270 6,4 C 5,9 C
10.03.2012 11:27 9,4 C 82 % 1030,6 hPa 0,0 l/m 15,8 km/h (3 Bft) W 270 6,5 C 7,1 C
10.03.2012 11:32 9,5 C 82 % 1030,5 hPa 0,0 l/m 8,6 km/h (2 Bft) W 270 6,6 C 8,3 C
10.03.2012 11:37 9,8 C 82 % 1030,6 hPa 0,0 l/m 15,1 km/h (3 Bft) W 270 6,9 C 7,7 C
10.03.2012 11:42 9,9 C 82 % 1030,5 hPa 0,0 l/m 14,4 km/h (3 Bft) W-NW 292 7,0 C 7,9 C
10.03.2012 11:47 9,9 C 81 % 1030,6 hPa 0,0 l/m 16,9 km/h (3 Bft) W 270 6,8 C 7,6 C
10.03.2012 11:52 10,1 C 81 % 1030,5 hPa 0,0 l/m 13,0 km/h (3 Bft) W-NW 292 7,0 C 10,1 C
10.03.2012 11:57 10,2 C 81 % 1030,4 hPa 0,0 l/m 18,7 km/h (3 Bft) W-NW 292 7,1 C 10,2 C
10.03.2012 12:02 10,3 C 80 % 1030,5 hPa 0,0 l/m 14,8 km/h (3 Bft) W-SW 247 7,0 C 10,3 C
10.03.2012 12:07 10,4 C 80 % 1030,7 hPa 0,0 l/m 19,4 km/h (3 Bft) W-NW 292 7,1 C 10,4 C
10.03.2012 12:12 10,4 C 80 % 1030,6 hPa 0,0 l/m 11,2 km/h (2 Bft) W-SW 247 7,1 C 10,4 C
10.03.2012 12:17 10,4 C 80 % 1030,7 hPa 0,0 l/m 7,6 km/h (2 Bft) W 270 7,1 C 10,4 C
10.03.2012 12:22 10,5 C 80 % 1030,9 hPa 0,0 l/m 15,1 km/h (3 Bft) W 270 7,2 C 10,5 C
10.03.2012 12:27 10,5 C 80 % 1030,8 hPa 0,0 l/m 24,1 km/h (4 Bft) W-NW 292 7,2 C 10,5 C
10.03.2012 12:32 10,4 C 80 % 1030,7 hPa 0,0 l/m 14,8 km/h (3 Bft) W-SW 247 7,1 C 10,4 C
10.03.2012 12:37 10,4 C 80 % 1030,5 hPa 0,0 l/m 13,7 km/h (3 Bft) W 270 7,1 C 10,4 C
10.03.2012 12:42 10,4 C 80 % 1030,4 hPa 0,0 l/m 23,8 km/h (4 Bft) W 270 7,1 C 10,4 C
10.03.2012 12:47 10,4 C 79 % 1030,5 hPa 0,0 l/m 20,5 km/h (4 Bft) W 270 6,9 C 10,4 C
10.03.2012 12:52 10,4 C 79 % 1030,2 hPa 0,0 l/m 18,4 km/h (3 Bft) W 270 6,9 C 10,4 C
10.03.2012 12:57 10,6 C 79 % 1030,0 hPa 0,0 l/m 15,5 km/h (3 Bft) W-NW 292 7,1 C 10,6 C
10.03.2012 13:02 10,8 C 79 % 1029,6 hPa 0,0 l/m 21,6 km/h (4 Bft) W 270 7,3 C 10,8 C
10.03.2012 13:07 10,9 C 79 % 1029,5 hPa 0,0 l/m 6,1 km/h (2 Bft) W-NW 292 7,4 C 10,9 C
10.03.2012 13:12 10,9 C 78 % 1029,6 hPa 0,0 l/m 16,6 km/h (3 Bft) W 270 7,2 C 10,9 C
10.03.2012 13:17 11,0 C 78 % 1029,7 hPa 0,0 l/m 13,7 km/h (3 Bft) W-NW 292 7,3 C 11,0 C
10.03.2012 13:22 11,1 C 77 % 1029,5 hPa 0,0 l/m 11,9 km/h (2 Bft) W 270 7,2 C 11,1 C
10.03.2012 13:27 11,2 C 77 % 1029,6 hPa 0,0 l/m 20,5 km/h (4 Bft) W-NW 292 7,3 C 11,2 C
10.03.2012 13:32 11,2 C 77 % 1029,7 hPa 0,0 l/m 8,3 km/h (2 Bft) SW 225 7,3 C 11,2 C
10.03.2012 13:37 11,3 C 76 % 1029,6 hPa 0,0 l/m 23,4 km/h (4 Bft) W 270 7,2 C 11,3 C
10.03.2012 13:42 11,4 C 76 % 1029,7 hPa 0,0 l/m 18,0 km/h (3 Bft) NW 315 7,3 C 11,4 C
10.03.2012 13:47 11,3 C 76 % 1029,7 hPa 0,0 l/m 21,2 km/h (4 Bft) W-NW 292 7,2 C 11,3 C
10.03.2012 13:52 11,3 C 75 % 1029,6 hPa 0,0 l/m 12,6 km/h (3 Bft) W-SW 247 7,0 C 11,3 C
10.03.2012 13:57 11,2 C 75 % 1029,4 hPa 0,0 l/m 10,4 km/h (2 Bft) W-SW 247 6,9 C 11,2 C
10.03.2012 14:02 11,1 C 75 % 1029,3 hPa 0,0 l/m 22,7 km/h (4 Bft) W-SW 247 6,8 C 11,1 C
10.03.2012 14:07 11,0 C 76 % 1029,2 hPa 0,0 l/m 10,1 km/h (2 Bft) W 270 6,9 C 11,0 C
10.03.2012 14:12 10,9 C 76 % 1029,2 hPa 0,0 l/m 14,0 km/h (3 Bft) W-NW 292 6,8 C 10,9 C
10.03.2012 14:17 10,9 C 76 % 1029,1 hPa 0,0 l/m 10,4 km/h (2 Bft) W-SW 247 6,8 C 10,9 C
10.03.2012 14:22 10,9 C 76 % 1029,1 hPa 0,0 l/m 8,3 km/h (2 Bft) W 270 6,8 C 10,9 C
10.03.2012 14:27 10,9 C 76 % 1029,1 hPa 0,0 l/m 14,0 km/h (3 Bft) W 270 6,8 C 10,9 C
10.03.2012 14:32 11,0 C 76 % 1029,1 hPa 0,0 l/m 11,5 km/h (2 Bft) W-SW 247 6,9 C 11,0 C
10.03.2012 14:37 11,1 C 76 % 1029,1 hPa 0,0 l/m 16,9 km/h (3 Bft) W-SW 247 7,0 C 11,1 C
10.03.2012 14:42 11,1 C 76 % 1029,0 hPa 0,0 l/m 24,8 km/h (4 Bft) W-SW 247 7,0 C 11,1 C
10.03.2012 14:47 11,1 C 76 % 1028,9 hPa 0,0 l/m 13,0 km/h (3 Bft) W 270 7,0 C 11,1 C
10.03.2012 14:52 11,1 C 75 % 1028,8 hPa 0,0 l/m 22,0 km/h (4 Bft) W 270 6,8 C 11,1 C
10.03.2012 14:57 11,0 C 75 % 1028,8 hPa 0,0 l/m 7,9 km/h (2 Bft) W 270 6,7 C 11,0 C
10.03.2012 15:02 10,9 C 76 % 1028,8 hPa 0,0 l/m 5,0 km/h (1 Bft) S 180 6,8 C 10,9 C
10.03.2012 15:07 11,0 C 76 % 1028,7 hPa 0,0 l/m 16,2 km/h (3 Bft) W-SW 247 6,9 C 11,0 C
10.03.2012 15:12 11,0 C 76 % 1028,7 hPa 0,0 l/m 11,9 km/h (2 Bft) W 270 6,9 C 11,0 C
10.03.2012 15:17 11,1 C 75 % 1028,5 hPa 0,0 l/m 14,8 km/h (3 Bft) W 270 6,8 C 11,1 C
10.03.2012 15:22 11,3 C 75 % 1028,6 hPa 0,0 l/m 7,9 km/h (2 Bft) SW 225 7,0 C 11,3 C
10.03.2012 15:27 11,3 C 75 % 1028,6 hPa 0,0 l/m 19,4 km/h (3 Bft) W 270 7,0 C 11,3 C
10.03.2012 15:32 11,3 C 75 % 1028,4 hPa 0,0 l/m 11,5 km/h (2 Bft) W-SW 247 7,0 C 11,3 C
10.03.2012 15:37 11,3 C 75 % 1028,4 hPa 0,0 l/m 10,8 km/h (2 Bft) W-NW 292 7,0 C 11,3 C
10.03.2012 15:42 11,3 C 75 % 1028,3 hPa 0,0 l/m 4,0 km/h (1 Bft) W-NW 292 7,0 C 11,3 C
10.03.2012 15:47 11,3 C 75 % 1028,3 hPa 0,0 l/m 18,7 km/h (3 Bft) W 270 7,0 C 11,3 C
10.03.2012 15:52 11,3 C 75 % 1028,2 hPa 0,0 l/m 11,5 km/h (2 Bft) W 270 7,0 C 11,3 C
10.03.2012 15:57 11,3 C 75 % 1028,1 hPa 0,0 l/m 32,8 km/h (5 Bft) W-SW 247 7,0 C 11,3 C
10.03.2012 16:02 11,3 C 75 % 1028,0 hPa 0,0 l/m 20,5 km/h (4 Bft) W 270 7,0 C 11,3 C
10.03.2012 16:07 11,2 C 75 % 1027,9 hPa 0,0 l/m 11,9 km/h (2 Bft) NW 315 6,9 C 11,2 C
10.03.2012 16:12 11,1 C 75 % 1028,0 hPa 0,0 l/m 17,3 km/h (3 Bft) W 270 6,8 C 11,1 C
10.03.2012 16:17 11,1 C 75 % 1028,1 hPa 0,0 l/m 23,0 km/h (4 Bft) W-NW 292 6,8 C 11,1 C
10.03.2012 16:22 11,0 C 75 % 1028,2 hPa 0,0 l/m 19,4 km/h (3 Bft) W-NW 292 6,7 C 11,0 C
10.03.2012 16:27 11,1 C 75 % 1028,0 hPa 0,0 l/m 16,2 km/h (3 Bft) W 270 6,8 C 11,1 C
10.03.2012 16:32 11,0 C 75 % 1028,0 hPa 0,0 l/m 13,0 km/h (3 Bft) W 270 6,7 C 11,0 C
10.03.2012 16:37 10,9 C 76 % 1028,0 hPa 0,0 l/m 11,5 km/h (2 Bft) W 270 6,8 C 10,9 C
10.03.2012 16:42 10,9 C 76 % 1028,0 hPa 0,0 l/m 25,9 km/h (4 Bft) W-SW 247 6,8 C 10,9 C
10.03.2012 16:47 10,9 C 76 % 1028,3 hPa 0,0 l/m 17,3 km/h (3 Bft) W-NW 292 6,8 C 10,9 C
10.03.2012 16:52 10,9 C 76 % 1028,4 hPa 0,0 l/m 11,2 km/h (2 Bft) W 270 6,8 C 10,9 C
10.03.2012 16:57 10,8 C 76 % 1028,4 hPa 0,0 l/m 13,0 km/h (3 Bft) W-SW 247 6,7 C 10,8 C
10.03.2012 17:02 10,8 C 76 % 1028,1 hPa 0,0 l/m 16,2 km/h (3 Bft) W-SW 247 6,7 C 10,8 C
10.03.2012 17:07 10,7 C 76 % 1027,8 hPa 0,0 l/m 8,6 km/h (2 Bft) W-NW 292 6,6 C 10,7 C
10.03.2012 17:12 10,7 C 76 % 1028,1 hPa 0,0 l/m 15,1 km/h (3 Bft) W 270 6,6 C 10,7 C
10.03.2012 17:17 10,6 C 76 % 1028,1 hPa 0,0 l/m 8,3 km/h (2 Bft) W-NW 292 6,5 C 10,6 C
10.03.2012 17:22 10,7 C 75 % 1028,2 hPa 0,0 l/m 7,6 km/h (2 Bft) W 270 6,5 C 10,7 C
10.03.2012 17:27 10,6 C 75 % 1028,3 hPa 0,0 l/m 16,6 km/h (3 Bft) W-NW 292 6,4 C 10,6 C
10.03.2012 17:32 10,6 C 75 % 1028,2 hPa 0,0 l/m 6,5 km/h (2 Bft) W-NW 292 6,4 C 10,6 C
10.03.2012 17:37 10,6 C 75 % 1028,3 hPa 0,0 l/m 12,2 km/h (2 Bft) W-NW 292 6,4 C 10,6 C
10.03.2012 17:42 10,6 C 75 % 1028,2 hPa 0,0 l/m 11,9 km/h (2 Bft) W-NW 292 6,4 C 10,6 C
10.03.2012 17:47 10,5 C 75 % 1028,1 hPa 0,0 l/m 13,0 km/h (3 Bft) W-NW 292 6,3 C 10,5 C
10.03.2012 17:52 10,4 C 74 % 1028,0 hPa 0,0 l/m 15,1 km/h (3 Bft) W-NW 292 6,0 C 10,4 C
10.03.2012 17:57 10,4 C 74 % 1028,1 hPa 0,0 l/m 16,9 km/h (3 Bft) W-NW 292 6,0 C 10,4 C
10.03.2012 18:02 10,4 C 73 % 1028,2 hPa 0,0 l/m 10,8 km/h (2 Bft) W-NW 292 5,8 C 10,4 C
10.03.2012 18:07 10,4 C 73 % 1028,1 hPa 0,0 l/m 15,1 km/h (3 Bft) W-NW 292 5,8 C 10,4 C
10.03.2012 18:12 10,3 C 73 % 1028,1 hPa 0,0 l/m 21,6 km/h (4 Bft) W-NW 292 5,7 C 10,3 C
10.03.2012 18:17 10,2 C 72 % 1028,3 hPa 0,0 l/m 17,6 km/h (3 Bft) W-NW 292 5,4 C 10,2 C
10.03.2012 18:22 10,2 C 71 % 1028,2 hPa 0,0 l/m 22,7 km/h (4 Bft) W-NW 292 5,2 C 10,2 C
10.03.2012 18:27 10,1 C 70 % 1028,2 hPa 0,0 l/m 25,6 km/h (4 Bft) W-NW 292 4,9 C 10,1 C
10.03.2012 18:32 10,1 C 69 % 1028,4 hPa 0,0 l/m 16,6 km/h (3 Bft) W-NW 292 4,7 C 10,1 C
10.03.2012 18:37 10,1 C 70 % 1028,3 hPa 0,0 l/m 9,0 km/h (2 Bft) W-NW 292 4,9 C 10,1 C
10.03.2012 18:42 10,1 C 70 % 1028,4 hPa 0,0 l/m 13,7 km/h (3 Bft) W-NW 292 4,9 C 10,1 C
10.03.2012 18:47 10,1 C 70 % 1028,7 hPa 0,0 l/m 10,4 km/h (2 Bft) W-NW 292 4,9 C 10,1 C
10.03.2012 18:52 10,0 C 70 % 1028,7 hPa 0,0 l/m 14,0 km/h (3 Bft) W 270 4,8 C 8,0 C
10.03.2012 18:57 9,9 C 70 % 1028,5 hPa 0,0 l/m 8,3 km/h (2 Bft) W-NW 292 4,7 C 8,8 C
10.03.2012 19:02 9,9 C 71 % 1028,3 hPa 0,0 l/m 7,6 km/h (2 Bft) W-NW 292 4,9 C 9,0 C
10.03.2012 19:07 9,9 C 71 % 1028,4 hPa 0,0 l/m 6,5 km/h (2 Bft) W 270 4,9 C 9,2 C
10.03.2012 19:12 9,8 C 71 % 1028,4 hPa 0,0 l/m 9,7 km/h (2 Bft) W-NW 292 4,8 C 8,4 C
10.03.2012 19:17 9,8 C 71 % 1028,7 hPa 0,0 l/m 3,2 km/h (1 Bft) W-NW 292 4,8 C 9,8 C
10.03.2012 19:22 9,6 C 72 % 1028,7 hPa 0,0 l/m 3,2 km/h (1 Bft) W-SW 247 4,8 C 9,6 C
10.03.2012 19:27 9,5 C 72 % 1028,8 hPa 0,0 l/m 2,2 km/h (1 Bft) W-NW 292 4,7 C 9,5 C
10.03.2012 19:32 9,4 C 72 % 1029,0 hPa 0,0 l/m 3,6 km/h (1 Bft) NW 315 4,6 C 9,4 C
10.03.2012 19:37 9,3 C 72 % 1028,8 hPa 0,0 l/m 7,9 km/h (2 Bft) W 270 4,5 C 8,2 C
10.03.2012 19:42 9,3 C 72 % 1028,7 hPa 0,0 l/m 1,1 km/h (1 Bft) W-NW 292 4,5 C 9,3 C
10.03.2012 19:47 9,1 C 73 % 1028,8 hPa 0,0 l/m 11,9 km/h (2 Bft) NW 315 4,5 C 7,2 C
10.03.2012 19:52 9,0 C 73 % 1028,7 hPa 0,0 l/m 5,8 km/h (2 Bft) NW 315 4,4 C 8,4 C
10.03.2012 19:57 8,9 C 73 % 1028,7 hPa 0,0 l/m 7,6 km/h (2 Bft) NW 315 4,3 C 7,8 C
10.03.2012 20:02 8,8 C 73 % 1028,9 hPa 0,0 l/m 9,7 km/h (2 Bft) W-NW 292 4,2 C 7,3 C
10.03.2012 20:07 8,8 C 73 % 1028,9 hPa 0,0 l/m 8,3 km/h (2 Bft) NW 315 4,2 C 7,5 C
10.03.2012 20:12 8,8 C 73 % 1029,0 hPa 0,0 l/m 5,4 km/h (1 Bft) W-SW 247 4,2 C 8,3 C
10.03.2012 20:17 8,8 C 73 % 1029,0 hPa 0,0 l/m 9,0 km/h (2 Bft) W-NW 292 4,2 C 7,4 C
10.03.2012 20:22 8,8 C 73 % 1029,0 hPa 0,0 l/m 14,0 km/h (3 Bft) W-NW 292 4,2 C 6,6 C
10.03.2012 20:27 8,9 C 73 % 1029,0 hPa 0,0 l/m 9,0 km/h (2 Bft) W 270 4,3 C 7,5 C
10.03.2012 20:32 8,8 C 72 % 1029,0 hPa 0,0 l/m 16,6 km/h (3 Bft) W-NW 292 4,0 C 6,2 C
10.03.2012 20:37 8,8 C 72 % 1029,0 hPa 0,0 l/m 13,3 km/h (3 Bft) W 270 4,0 C 6,7 C
10.03.2012 20:42 8,8 C 72 % 1028,8 hPa 0,0 l/m 15,8 km/h (3 Bft) W-NW 292 4,0 C 6,3 C
10.03.2012 20:47 8,8 C 72 % 1028,8 hPa 0,0 l/m 8,6 km/h (2 Bft) W-SW 247 4,0 C 7,5 C
10.03.2012 20:52 8,7 C 72 % 1028,7 hPa 0,0 l/m 9,7 km/h (2 Bft) W 270 3,9 C 7,1 C
10.03.2012 20:57 8,6 C 72 % 1028,5 hPa 0,0 l/m 21,6 km/h (4 Bft) W-NW 292 3,8 C 5,5 C
10.03.2012 21:02 8,6 C 73 % 1028,7 hPa 0,0 l/m 11,5 km/h (2 Bft) W 270 4,0 C 6,7 C
10.03.2012 21:07 8,5 C 73 % 1028,7 hPa 0,0 l/m 15,1 km/h (3 Bft) W-NW 292 3,9 C 6,1 C
10.03.2012 21:12 8,5 C 73 % 1028,7 hPa 0,0 l/m 9,7 km/h (2 Bft) W 270 3,9 C 6,9 C
10.03.2012 21:17 8,4 C 73 % 1028,8 hPa 0,0 l/m 8,3 km/h (2 Bft) W 270 3,8 C 7,1 C
10.03.2012 21:22 8,4 C 73 % 1028,8 hPa 0,0 l/m 12,2 km/h (2 Bft) W 270 3,8 C 6,3 C
10.03.2012 21:27 8,4 C 74 % 1028,8 hPa 0,0 l/m 11,2 km/h (2 Bft) NW 315 4,0 C 6,5 C
10.03.2012 21:32 8,4 C 74 % 1028,9 hPa 0,0 l/m 14,8 km/h (3 Bft) W-NW 292 4,0 C 6,0 C
10.03.2012 21:37 8,3 C 74 % 1029,0 hPa 0,0 l/m 12,2 km/h (2 Bft) W 270 3,9 C 6,2 C
10.03.2012 21:42 8,3 C 74 % 1028,9 hPa 0,0 l/m 11,5 km/h (2 Bft) SW 225 3,9 C 6,3 C
10.03.2012 21:47 8,3 C 74 % 1028,9 hPa 0,0 l/m 19,1 km/h (3 Bft) W-NW 292 3,9 C 5,3 C
10.03.2012 21:52 8,3 C 74 % 1028,8 hPa 0,0 l/m 10,1 km/h (2 Bft) N-NW 337 3,9 C 6,6 C
10.03.2012 21:57 8,3 C 74 % 1028,7 hPa 0,0 l/m 11,5 km/h (2 Bft) W 270 3,9 C 6,3 C
10.03.2012 22:02 8,2 C 74 % 1028,8 hPa 0,0 l/m 5,8 km/h (2 Bft) W-NW 292 3,8 C 7,5 C
10.03.2012 22:07 8,2 C 74 % 1028,8 hPa 0,0 l/m 10,4 km/h (2 Bft) W-NW 292 3,8 C 6,4 C
10.03.2012 22:12 8,2 C 74 % 1028,7 hPa 0,0 l/m 9,7 km/h (2 Bft) W-SW 247 3,8 C 6,5 C
10.03.2012 22:17 8,1 C 74 % 1028,7 hPa 0,0 l/m 16,6 km/h (3 Bft) W-NW 292 3,8 C 5,4 C
10.03.2012 22:22 8,1 C 74 % 1028,7 hPa 0,0 l/m 17,6 km/h (3 Bft) W-NW 292 3,8 C 5,2 C
10.03.2012 22:27 8,1 C 74 % 1028,6 hPa 0,0 l/m 14,4 km/h (3 Bft) W-SW 247 3,8 C 5,7 C
10.03.2012 22:32 8,1 C 75 % 1028,7 hPa 0,0 l/m 11,9 km/h (2 Bft) W 270 3,9 C 6,0 C
10.03.2012 22:37 8,1 C 75 % 1028,7 hPa 0,0 l/m 7,2 km/h (2 Bft) NW 315 3,9 C 7,0 C
10.03.2012 22:42 8,1 C 75 % 1028,8 hPa 0,0 l/m 11,2 km/h (2 Bft) W-SW 247 3,9 C 6,1 C
10.03.2012 22:47 8,1 C 75 % 1028,6 hPa 0,0 l/m 10,1 km/h (2 Bft) NW 315 3,9 C 6,3 C
10.03.2012 22:52 7,9 C 75 % 1028,8 hPa 0,0 l/m 7,2 km/h (2 Bft) W-NW 292 3,7 C 6,7 C
10.03.2012 22:57 7,9 C 76 % 1028,7 hPa 0,0 l/m 13,7 km/h (3 Bft) W-NW 292 3,9 C 5,5 C
10.03.2012 23:02 7,9 C 76 % 1028,7 hPa 0,0 l/m 8,6 km/h (2 Bft) W 270 3,9 C 6,4 C
10.03.2012 23:07 7,9 C 76 % 1028,6 hPa 0,0 l/m 15,8 km/h (3 Bft) W 270 3,9 C 5,2 C
10.03.2012 23:12 7,9 C 76 % 1028,4 hPa 0,0 l/m 11,5 km/h (2 Bft) W 270 3,9 C 5,9 C
10.03.2012 23:17 7,9 C 76 % 1028,6 hPa 0,0 l/m 10,8 km/h (2 Bft) W 270 3,9 C 6,0 C
10.03.2012 23:22 7,9 C 76 % 1028,6 hPa 0,0 l/m 11,5 km/h (2 Bft) W 270 3,9 C 5,9 C
10.03.2012 23:27 7,8 C 76 % 1028,4 hPa 0,0 l/m 5,4 km/h (1 Bft) W 270 3,8 C 7,1 C
10.03.2012 23:32 7,8 C 76 % 1028,5 hPa 0,0 l/m 14,4 km/h (3 Bft) W 270 3,8 C 5,3 C
10.03.2012 23:37 7,8 C 76 % 1028,3 hPa 0,0 l/m 7,6 km/h (2 Bft) W 270 3,8 C 6,5 C
10.03.2012 23:42 7,8 C 76 % 1028,4 hPa 0,0 l/m 6,1 km/h (2 Bft) W-SW 247 3,8 C 6,9 C
10.03.2012 23:47 7,8 C 76 % 1028,3 hPa 0,0 l/m 15,8 km/h (3 Bft) W-SW 247 3,8 C 5,1 C
10.03.2012 23:52 7,8 C 77 % 1028,4 hPa 0,0 l/m 13,7 km/h (3 Bft) W 270 4,0 C 5,4 C
10.03.2012 23:57 7,8 C 77 % 1028,4 hPa 0,0 l/m 9,4 km/h (2 Bft) W 270 4,0 C 6,1 C
_ Min-Zeit 02:12 18:32 17:07 - 19:42 - - 02:12 05:27
Minimum _ 6,7 C 69 % 1027,8 hPa - 1,1 km/h (1 Bft) - - 2,6 C 3,7 C
_ Max-Zeit 13:42 09:27 00:02 00:02 15:57 - - 13:07 13:42
Maximum _ 11,4 C 82 % 1033,1 hPa 0,0 l/m 32,8 km/h
W-SW (5 Bft)
- - 7,4 C 11,4 C
Durchschnitt _ 8,8 C 77 % 1030,1 hPa #0,0 l/m 12,1 km/h (2 Bft) W - 4,9 C 7,5 C
(c) by David Heller